UAE385A VTBS-OMDB

Flight info

Callsign UAE385A
Flight time N/A
Altitude 36000
Route PASTO1E PASTO L301 MEPOK/N0486F380 L301 RAGMA N571 VUSET A454 PASOV B540 MIVEK P574 IMPED
Aircraft A388/J-SADE2E3FGHIJ3J4J5M1RWXY/LB1D1

Departure

Time 2026-05-06 12:03
Airport Suvarnabhumi Airport (VTBS)

Arrival

Time N/A
Airport Dubai International Airport (OMDB)
Time Latitude Longitude Altitude Speed Heading
2026-05-06 11:51 13.68395 100.74936 23 ft 3 kts 274°
2026-05-06 11:51 13.68394 100.74945 23 ft 0 kts 284°
2026-05-06 11:55 13.68398 100.74929 23 ft 5 kts 284°
2026-05-06 11:55 13.68411 100.74874 18 ft 10 kts 284°
2026-05-06 11:55 13.68432 100.74790 22 ft 14 kts 284°
2026-05-06 11:55 13.68459 100.74680 19 ft 18 kts 284°
2026-05-06 11:56 13.68492 100.74548 19 ft 19 kts 284°
2026-05-06 11:56 13.68529 100.74402 22 ft 22 kts 284°
2026-05-06 11:56 13.68566 100.74253 21 ft 17 kts 284°
2026-05-06 11:56 13.68588 100.74181 21 ft 8 kts 306°
2026-05-06 11:57 13.68645 100.74159 21 ft 11 kts 12°
2026-05-06 11:57 13.68687 100.74150 22 ft 3 kts 304°
2026-05-06 11:57 13.68688 100.74149 22 ft 0 kts 300°
2026-05-06 11:57 13.68688 100.74148 22 ft 1 kts 298°
2026-05-06 11:58 13.68698 100.74121 20 ft 8 kts 288°
2026-05-06 11:58 13.68737 100.74086 20 ft 9 kts 356°
2026-05-06 11:58 13.68824 100.74103 22 ft 17 kts 14°
2026-05-06 11:58 13.68957 100.74139 21 ft 23 kts 15°
2026-05-06 11:59 13.69112 100.74179 20 ft 24 kts 14°
2026-05-06 11:59 13.69285 100.74224 18 ft 27 kts 14°
2026-05-06 11:59 13.69474 100.74274 18 ft 25 kts 14°
2026-05-06 11:59 13.69646 100.74319 18 ft 26 kts 14°
2026-05-06 12:00 13.69826 100.74367 18 ft 27 kts 14°
2026-05-06 12:00 13.70012 100.74415 19 ft 28 kts 14°
2026-05-06 12:00 13.70186 100.74461 19 ft 18 kts 14°
2026-05-06 12:00 13.70283 100.74485 19 ft 9 kts
2026-05-06 12:01 13.70326 100.74456 23 ft 3 kts 292°
2026-05-06 12:01 13.70327 100.74455 23 ft 0 kts 292°
2026-05-06 12:01 13.70334 100.74436 22 ft 6 kts 289°
2026-05-06 12:01 13.70344 100.74385 23 ft 8 kts 268°
2026-05-06 12:02 13.70328 100.74331 23 ft 9 kts 235°
2026-05-06 12:02 13.70282 100.74296 21 ft 6 kts 198°
2026-05-06 12:02 13.70252 100.74289 21 ft 9 kts 194°
2026-05-06 12:02 13.70000 100.74223 19 ft 73 kts 195°
2026-05-06 12:03 13.69299 100.74039 17 ft 131 kts 194°
2026-05-06 12:03 13.68291 100.73775 21 ft 166 kts 194°
2026-05-06 12:03 13.67120 100.73479 257 ft 172 kts 193°
2026-05-06 12:03 13.65962 100.73188 664 ft 174 kts 194°
2026-05-06 12:04 13.64790 100.72855 1056 ft 174 kts 197°
2026-05-06 12:04 13.63657 100.72519 1534 ft 170 kts 195°
2026-05-06 12:04 13.62478 100.72189 1866 ft 173 kts 194°
2026-05-06 12:04 13.61319 100.71878 2299 ft 173 kts 192°
2026-05-06 12:05 13.60145 100.71575 2716 ft 177 kts 192°
2026-05-06 12:05 13.58925 100.71260 3051 ft 182 kts 194°
2026-05-06 12:05 13.57746 100.70680 3269 ft 198 kts 214°
2026-05-06 12:05 13.56779 100.69615 3383 ft 213 kts 238°
2026-05-06 12:06 13.56238 100.68153 3478 ft 226 kts 260°
2026-05-06 12:06 13.56295 100.66512 3561 ft 236 kts 284°
2026-05-06 12:06 13.57037 100.64948 3659 ft 256 kts 310°
2026-05-06 12:06 13.58346 100.63628 3865 ft 273 kts 317°
2026-05-06 12:07 13.59756 100.62239 4302 ft 282 kts 316°
2026-05-06 12:07 13.61161 100.60825 5019 ft 283 kts 316°
2026-05-06 12:07 13.62564 100.59408 5725 ft 283 kts 316°
2026-05-06 12:07 13.63978 100.57981 6332 ft 287 kts 316°
2026-05-06 12:08 13.65410 100.56539 6922 ft 289 kts 315°
2026-05-06 12:08 13.66832 100.55107 7546 ft 291 kts 316°
2026-05-06 12:08 13.68286 100.53643 8136 ft 294 kts 316°
2026-05-06 12:08 13.69753 100.52166 8758 ft 296 kts 316°
2026-05-06 12:09 13.71231 100.50677 9351 ft 300 kts 316°
2026-05-06 12:09 13.72734 100.49163 9885 ft 305 kts 316°
2026-05-06 12:09 13.74289 100.47599 10102 ft 321 kts 316°
2026-05-06 12:09 13.75922 100.45952 10268 ft 337 kts 316°
2026-05-06 12:10 13.77635 100.44225 10401 ft 352 kts 316°
2026-05-06 12:10 13.79398 100.42448 10875 ft 356 kts 316°
2026-05-06 12:10 13.81169 100.40662 11404 ft 357 kts 316°
2026-05-06 12:10 13.82950 100.38865 11960 ft 360 kts 316°
2026-05-06 12:11 13.84731 100.37068 12558 ft 359 kts 316°
2026-05-06 12:11 13.86530 100.35252 13061 ft 363 kts 316°
2026-05-06 12:11 13.88314 100.33450 13569 ft 366 kts 317°
2026-05-06 12:11 13.90136 100.31612 14051 ft 368 kts 317°
2026-05-06 12:12 13.91966 100.29764 14527 ft 370 kts 317°
2026-05-06 12:12 13.93802 100.27911 14999 ft 372 kts 316°
2026-05-06 12:12 13.95634 100.26012 15442 ft 375 kts 311°
2026-05-06 12:12 13.97009 100.23723 15917 ft 380 kts 293°
2026-05-06 12:13 13.97645 100.21077 16367 ft 385 kts 275°
2026-05-06 12:13 13.97732 100.18324 16785 ft 388 kts 272°
2026-05-06 12:13 13.97820 100.15538 17226 ft 391 kts 273°
2026-05-06 12:13 13.97921 100.12736 17678 ft 393 kts 273°
2026-05-06 12:14 13.98027 100.09913 18109 ft 395 kts 273°
2026-05-06 12:14 13.98132 100.07076 18478 ft 398 kts 273°
2026-05-06 12:14 13.98236 100.04227 18853 ft 400 kts 273°
2026-05-06 12:14 13.98340 100.01357 19214 ft 402 kts 273°
2026-05-06 12:15 13.98444 99.98475 19576 ft 404 kts 273°
2026-05-06 12:15 13.98548 99.95584 19920 ft 406 kts 273°
2026-05-06 12:15 13.98652 99.92665 20283 ft 408 kts 273°
2026-05-06 12:15 13.98756 99.89735 20615 ft 410 kts 273°
2026-05-06 12:16 13.98858 99.86842 20950 ft 413 kts 273°
2026-05-06 12:16 13.98965 99.83829 21296 ft 415 kts 273°
2026-05-06 12:16 13.99068 99.80896 21651 ft 416 kts 273°
2026-05-06 12:16 13.99174 99.77870 21989 ft 418 kts 273°
2026-05-06 12:17 13.99277 99.74913 22306 ft 420 kts 273°
2026-05-06 12:17 13.99382 99.71901 22632 ft 423 kts 273°
2026-05-06 12:17 13.99453 99.69848 22853 ft 424 kts 273°
2026-05-06 12:17 13.99593 99.65817 23281 ft 427 kts 273°
2026-05-06 12:18 13.99663 99.63756 23479 ft 428 kts 273°
2026-05-06 12:18 13.99803 99.59688 23837 ft 430 kts 273°
2026-05-06 12:18 13.99909 99.56602 24101 ft 432 kts 273°
2026-05-06 12:18 13.99980 99.54511 24292 ft 433 kts 273°
2026-05-06 12:19 14.00085 99.51406 24560 ft 435 kts 273°
2026-05-06 12:19 14.00294 99.48295 24820 ft 436 kts 277°
2026-05-06 12:19 14.00604 99.45184 25067 ft 438 kts 276°
2026-05-06 12:19 14.00909 99.42052 25292 ft 441 kts 276°
2026-05-06 12:20 14.01210 99.38907 25579 ft 442 kts 276°
2026-05-06 12:20 14.01512 99.35750 25839 ft 444 kts 276°
2026-05-06 12:20 14.01813 99.32585 26105 ft 446 kts 276°
2026-05-06 12:20 14.02117 99.29404 26381 ft 447 kts 276°
2026-05-06 12:21 14.02420 99.26213 26651 ft 449 kts 276°
2026-05-06 12:21 14.02726 99.22998 26935 ft 451 kts 276°
2026-05-06 12:21 14.03031 99.19782 27221 ft 453 kts 276°
2026-05-06 12:21 14.03333 99.16588 27499 ft 455 kts 276°
2026-05-06 12:22 14.03645 99.13298 27797 ft 457 kts 276°
2026-05-06 12:22 14.03953 99.10036 28081 ft 459 kts 276°
2026-05-06 12:22 14.04259 99.06797 28409 ft 461 kts 276°
2026-05-06 12:22 14.04570 99.03505 28730 ft 463 kts 276°
2026-05-06 12:23 14.04881 99.00199 29075 ft 464 kts 276°
2026-05-06 12:23 14.05192 98.96890 29417 ft 466 kts 276°
2026-05-06 12:23 14.05459 98.93563 29745 ft 469 kts 275°
2026-05-06 12:23 14.05668 98.90191 30077 ft 471 kts 274°
2026-05-06 12:24 14.05867 98.86822 30391 ft 473 kts 274°
2026-05-06 12:24 14.06073 98.83421 30702 ft 476 kts 274°
2026-05-06 12:24 14.06285 98.80013 31007 ft 478 kts 275°
2026-05-06 12:24 14.06504 98.76592 31322 ft 480 kts 275°
2026-05-06 12:25 14.06726 98.73159 31633 ft 482 kts 275°
2026-05-06 12:25 14.06949 98.69698 32005 ft 483 kts 275°
2026-05-06 12:25 14.07172 98.66240 32357 ft 484 kts 275°
2026-05-06 12:25 14.07394 98.62781 32639 ft 487 kts 275°
2026-05-06 12:26 14.07619 98.59290 32961 ft 489 kts 275°
2026-05-06 12:26 14.07844 98.55783 33266 ft 491 kts 275°
2026-05-06 12:26 14.08068 98.52272 33574 ft 493 kts 275°
2026-05-06 12:26 14.08292 98.48735 33862 ft 495 kts 275°
2026-05-06 12:27 14.08516 98.45189 34138 ft 497 kts 275°
2026-05-06 12:27 14.08742 98.41629 34407 ft 499 kts 275°
2026-05-06 12:27 14.08968 98.38055 34697 ft 500 kts 275°
2026-05-06 12:27 14.09193 98.34483 35056 ft 500 kts 275°
2026-05-06 12:28 14.09416 98.30925 35547 ft 496 kts 275°
2026-05-06 12:28 14.09638 98.27384 35770 ft 494 kts 275°
2026-05-06 12:28 14.10273 98.20326 35840 ft 497 kts 281°
2026-05-06 12:29 14.11891 98.13406 35826 ft 497 kts 285°
2026-05-06 12:29 14.13618 98.06517 35826 ft 497 kts 285°
2026-05-06 12:30 14.15340 97.99622 35820 ft 496 kts 285°
2026-05-06 12:30 14.17064 97.92737 35826 ft 495 kts 285°
2026-05-06 12:31 14.18775 97.85895 35813 ft 494 kts 285°
2026-05-06 12:31 14.20478 97.79075 35803 ft 493 kts 285°
2026-05-06 12:32 14.22175 97.72266 35793 ft 492 kts 285°
2026-05-06 12:32 14.23880 97.65417 35786 ft 491 kts 285°
2026-05-06 12:33 14.25585 97.58559 35783 ft 491 kts 285°
2026-05-06 12:33 14.27268 97.51782 35784 ft 492 kts 285°
2026-05-06 12:34 14.28962 97.44955 35794 ft 493 kts 285°
2026-05-06 12:34 14.30660 97.38097 35804 ft 494 kts 285°
2026-05-06 12:35 14.32359 97.31230 35815 ft 495 kts 285°
2026-05-06 12:35 14.34061 97.24344 35823 ft 496 kts 285°
2026-05-06 12:36 14.35764 97.17443 35829 ft 497 kts 285°
2026-05-06 12:36 14.37465 97.10538 35830 ft 497 kts 285°
2026-05-06 12:37 14.39159 97.03655 35827 ft 497 kts 285°
2026-05-06 12:37 14.40856 96.96746 35827 ft 496 kts 285°
2026-05-06 12:38 14.42550 96.89846 35819 ft 496 kts 285°
2026-05-06 12:38 14.44239 96.82953 35822 ft 496 kts 285°
2026-05-06 12:39 14.45927 96.76055 35818 ft 495 kts 285°
2026-05-06 12:39 14.47612 96.69164 35816 ft 495 kts 285°
2026-05-06 12:40 14.49272 96.62361 35825 ft 494 kts 285°
2026-05-06 12:40 14.50955 96.55458 35817 ft 493 kts 284°
2026-05-06 12:41 14.52627 96.48588 35816 ft 493 kts 284°
2026-05-06 12:41 14.54297 96.41722 35815 ft 494 kts 284°
2026-05-06 12:42 14.55965 96.34850 35821 ft 494 kts 284°
2026-05-06 12:42 14.57633 96.27971 35817 ft 493 kts 284°
2026-05-06 12:43 14.59297 96.21097 35819 ft 493 kts 284°
2026-05-06 12:43 14.60959 96.14226 35817 ft 493 kts 284°
2026-05-06 12:44 14.62614 96.07372 35819 ft 493 kts 284°
2026-05-06 12:44 14.64270 96.00502 35818 ft 493 kts 284°
2026-05-06 12:45 14.65924 95.93635 35820 ft 493 kts 284°
2026-05-06 12:46 14.68396 95.83350 35820 ft 492 kts 284°
2026-05-06 12:46 14.70048 95.76468 35818 ft 493 kts 284°
2026-05-06 12:47 14.71694 95.69600 35822 ft 492 kts 284°
2026-05-06 12:47 14.73326 95.62780 35824 ft 492 kts 284°
2026-05-06 12:48 14.74967 95.55917 35823 ft 492 kts 284°
2026-05-06 12:48 14.76605 95.49051 35820 ft 492 kts 284°
2026-05-06 12:49 14.78231 95.42229 35822 ft 492 kts 284°
2026-05-06 12:49 14.79873 95.35330 35821 ft 492 kts 284°
2026-05-06 12:50 14.81504 95.28467 35816 ft 492 kts 284°
2026-05-06 12:50 14.83133 95.21604 35818 ft 492 kts 284°
2026-05-06 12:51 14.84752 95.14770 35819 ft 492 kts 284°
2026-05-06 12:51 14.86385 95.07871 35820 ft 492 kts 284°
2026-05-06 12:52 14.88004 95.01022 35831 ft 492 kts 284°
2026-05-06 12:52 14.89626 94.94149 35841 ft 491 kts 283°
2026-05-06 12:53 14.91242 94.87294 35841 ft 491 kts 283°
2026-05-06 12:53 14.92855 94.80440 35833 ft 490 kts 283°
2026-05-06 12:54 14.94463 94.73598 35826 ft 489 kts 283°
2026-05-06 12:54 14.96066 94.66765 35821 ft 489 kts 283°
2026-05-06 12:55 14.97665 94.59940 35817 ft 488 kts 283°
2026-05-06 12:55 14.99251 94.53164 35820 ft 488 kts 283°
2026-05-06 12:56 15.00844 94.46348 35821 ft 488 kts 283°
2026-05-06 12:56 15.02439 94.39513 35821 ft 488 kts 283°
2026-05-06 12:57 15.04028 94.32691 35825 ft 489 kts 283°
2026-05-06 12:57 15.05621 94.25845 35827 ft 489 kts 283°
2026-05-06 12:58 15.07209 94.19011 35830 ft 489 kts 283°
2026-05-06 12:58 15.08800 94.12155 35828 ft 489 kts 283°
2026-05-06 12:59 15.10386 94.05310 35831 ft 490 kts 283°
2026-05-06 12:59 15.11972 93.98452 35832 ft 490 kts 283°
2026-05-06 13:00 15.13557 93.91593 35836 ft 490 kts 283°
2026-05-06 13:00 15.15139 93.84732 35837 ft 490 kts 283°
2026-05-06 13:01 15.16719 93.77876 35830 ft 490 kts 283°
2026-05-06 13:01 15.18297 93.71011 35829 ft 490 kts 283°
2026-05-06 13:02 15.19874 93.64145 35833 ft 490 kts 283°
2026-05-06 13:02 15.21177 93.58463 35834 ft 490 kts 283°
2026-05-06 13:03 15.22754 93.51578 35832 ft 490 kts 283°
2026-05-06 13:03 15.24326 93.44705 35833 ft 490 kts 283°
2026-05-06 13:04 15.25896 93.37832 35833 ft 490 kts 283°
2026-05-06 13:04 15.27462 93.30961 35835 ft 490 kts 282°
2026-05-06 13:05 15.29026 93.24092 35832 ft 490 kts 282°
2026-05-06 13:05 15.30588 93.17223 35836 ft 490 kts 282°
2026-05-06 13:06 15.32145 93.10363 35837 ft 490 kts 282°
2026-05-06 13:06 15.33690 93.03549 35839 ft 490 kts 282°
2026-05-06 13:07 15.35254 92.96639 35838 ft 489 kts 282°
2026-05-06 13:07 15.36795 92.89821 35837 ft 489 kts 282°
2026-05-06 13:08 15.38344 92.82958 35835 ft 489 kts 282°
2026-05-06 13:08 15.39894 92.76088 35834 ft 489 kts 282°
2026-05-06 13:09 15.41440 92.69227 35837 ft 489 kts 282°
2026-05-06 13:09 15.42981 92.62376 35839 ft 489 kts 282°
2026-05-06 13:10 15.44654 92.55522 35841 ft 489 kts 283°
2026-05-06 13:10 15.46366 92.48696 35841 ft 489 kts 283°
2026-05-06 13:11 15.48052 92.41892 35843 ft 489 kts 283°
2026-05-06 13:11 15.49743 92.35031 35840 ft 489 kts 283°
2026-05-06 13:12 15.51426 92.28191 35842 ft 489 kts 283°
2026-05-06 13:12 15.53096 92.21394 35840 ft 490 kts 283°
2026-05-06 13:13 15.54775 92.14549 35840 ft 490 kts 283°
2026-05-06 13:13 15.56449 92.07715 35843 ft 490 kts 283°
2026-05-06 13:14 15.58127 92.00858 35844 ft 490 kts 283°
2026-05-06 13:14 15.59788 91.94002 35844 ft 490 kts 283°
2026-05-06 13:15 15.61435 91.87146 35846 ft 490 kts 283°
2026-05-06 13:15 15.63083 91.80287 35846 ft 490 kts 283°
2026-05-06 13:16 15.64727 91.73440 35864 ft 489 kts 283°
2026-05-06 13:16 15.66359 91.66631 35855 ft 488 kts 283°
2026-05-06 13:17 15.67992 91.59811 35848 ft 487 kts 283°
2026-05-06 13:17 15.69621 91.52997 35843 ft 486 kts 283°
2026-05-06 13:18 15.71245 91.46191 35843 ft 485 kts 282°
2026-05-06 13:18 15.72865 91.39394 35840 ft 485 kts 282°